EXS101 EGBB-LIMC

Flight info

Callsign EXS101
Flight time N/A
Altitude 37000
Route DCT COWLY Q70 BIG UL9 KONAN UL607 FERDI DCT SUTAL DCT GTQ/N0466F310 DCT DEVDI DCT BASGO/N0472F290 Z424 AKASU/N0402F190 Z424 RIXUV RIXUV3E
Aircraft B38M/M-ICAO/S

Departure

Time 2026-05-05 20:55
Airport Birmingham Airport (EGBB)

Arrival

Time N/A
Airport Milan Malpensa International Airport (LIMC)
Time Latitude Longitude Altitude Speed Heading
2026-05-05 20:27 52.44981 -1.73186 335 ft 0 kts 146°
2026-05-05 20:41 52.44981 -1.73187 335 ft 0 kts 151°
2026-05-05 20:42 52.44986 -1.73191 335 ft 3 kts 153°
2026-05-05 20:42 52.45003 -1.73205 331 ft 3 kts 180°
2026-05-05 20:42 52.45019 -1.73195 334 ft 2 kts 238°
2026-05-05 20:42 52.45020 -1.73192 334 ft 0 kts 238°
2026-05-05 20:50 52.45013 -1.73212 331 ft 4 kts 241°
2026-05-05 20:50 52.44991 -1.73277 332 ft 9 kts 240°
2026-05-05 20:50 52.44953 -1.73382 331 ft 11 kts 239°
2026-05-05 20:50 52.44923 -1.73489 332 ft 11 kts 246°
2026-05-05 20:51 52.44893 -1.73570 330 ft 7 kts 233°
2026-05-05 20:51 52.44864 -1.73638 331 ft 8 kts 231°
2026-05-05 20:51 52.44806 -1.73689 335 ft 9 kts 189°
2026-05-05 20:51 52.44755 -1.73713 334 ft 8 kts 198°
2026-05-05 20:52 52.44736 -1.73726 332 ft 2 kts 201°
2026-05-05 20:52 52.44729 -1.73740 333 ft 2 kts 234°
2026-05-05 20:52 52.44716 -1.73776 335 ft 6 kts 239°
2026-05-05 20:52 52.44690 -1.73851 333 ft 9 kts 239°
2026-05-05 20:53 52.44656 -1.73935 330 ft 4 kts 256°
2026-05-05 20:53 52.44664 -1.73993 330 ft 6 kts 307°
2026-05-05 20:53 52.44691 -1.74029 332 ft 4 kts 326°
2026-05-05 20:53 52.44737 -1.74080 329 ft 15 kts 326°
2026-05-05 20:54 52.44877 -1.74237 328 ft 38 kts 326°
2026-05-05 20:54 52.45286 -1.74690 326 ft 103 kts 326°
2026-05-05 20:54 52.46046 -1.75510 351 ft 153 kts 332°
2026-05-05 20:54 52.47010 -1.76466 749 ft 167 kts 333°
2026-05-05 20:55 52.48012 -1.77420 1240 ft 166 kts 334°
2026-05-05 20:55 52.49000 -1.78343 1881 ft 160 kts 336°
2026-05-05 20:55 52.49976 -1.79260 2195 ft 165 kts 336°
2026-05-05 20:55 52.51058 -1.79620 2328 ft 162 kts 22°
2026-05-05 20:56 52.52005 -1.78599 2420 ft 170 kts 52°
2026-05-05 20:56 52.52461 -1.76713 2568 ft 192 kts 88°
2026-05-05 20:56 52.52025 -1.74540 2868 ft 218 kts 129°
2026-05-05 20:56 52.50709 -1.73065 3172 ft 243 kts 152°
2026-05-05 20:57 52.49085 -1.71968 3531 ft 259 kts 156°
2026-05-05 20:57 52.47422 -1.70845 4094 ft 265 kts 154°
2026-05-05 20:57 52.45738 -1.69549 4755 ft 268 kts 153°
2026-05-05 20:57 52.44047 -1.68214 5409 ft 271 kts 154°
2026-05-05 20:58 52.42338 -1.66905 6058 ft 273 kts 154°
2026-05-05 20:58 52.40608 -1.65596 6693 ft 275 kts 155°
2026-05-05 20:58 52.38862 -1.64268 7274 ft 278 kts 155°
2026-05-05 20:58 52.37095 -1.62919 7839 ft 282 kts 155°
2026-05-05 20:59 52.35301 -1.61552 8395 ft 287 kts 155°
2026-05-05 20:59 52.33462 -1.60154 8912 ft 294 kts 155°
2026-05-05 20:59 52.31594 -1.58735 9478 ft 298 kts 156°
2026-05-05 20:59 52.29698 -1.57296 10068 ft 302 kts 156°
2026-05-05 21:00 52.27793 -1.55852 10486 ft 310 kts 156°
2026-05-05 21:00 52.25795 -1.54339 10794 ft 323 kts 156°
2026-05-05 21:00 52.23715 -1.52765 11113 ft 334 kts 156°
2026-05-05 21:00 52.21580 -1.51150 11570 ft 341 kts 156°
2026-05-05 21:01 52.20151 -1.50070 11909 ft 344 kts 156°
2026-05-05 21:01 52.17965 -1.48420 12461 ft 347 kts 156°
2026-05-05 21:01 52.15762 -1.46760 13000 ft 350 kts 156°
2026-05-05 21:01 52.13536 -1.45085 13572 ft 353 kts 156°
2026-05-05 21:02 52.11297 -1.43400 14096 ft 356 kts 156°
2026-05-05 21:02 52.09039 -1.41702 14589 ft 358 kts 156°
2026-05-05 21:02 52.06762 -1.39995 15089 ft 361 kts 157°
2026-05-05 21:02 52.04479 -1.38284 15607 ft 362 kts 156°
2026-05-05 21:03 52.02189 -1.36568 16093 ft 363 kts 157°
2026-05-05 21:03 51.99887 -1.34846 16605 ft 365 kts 156°
2026-05-05 21:03 51.97572 -1.33116 17114 ft 366 kts 156°
2026-05-05 21:03 51.95256 -1.31389 17610 ft 367 kts 156°
2026-05-05 21:04 51.92930 -1.29655 18121 ft 369 kts 156°
2026-05-05 21:04 51.90592 -1.27913 18572 ft 370 kts 157°
2026-05-05 21:04 51.88245 -1.26169 18977 ft 372 kts 157°
2026-05-05 21:04 51.85916 -1.24440 19354 ft 374 kts 157°
2026-05-05 21:05 51.83545 -1.22680 19739 ft 376 kts 156°
2026-05-05 21:05 51.81154 -1.20907 20110 ft 379 kts 157°
2026-05-05 21:05 51.78746 -1.19125 20468 ft 382 kts 157°
2026-05-05 21:05 51.76322 -1.17333 20814 ft 385 kts 157°
2026-05-05 21:06 51.73879 -1.15529 21144 ft 387 kts 157°
2026-05-05 21:06 51.71420 -1.13715 21494 ft 390 kts 157°
2026-05-05 21:06 51.68936 -1.11886 21849 ft 393 kts 157°
2026-05-05 21:06 51.66440 -1.10049 22195 ft 395 kts 157°
2026-05-05 21:07 51.63963 -1.08093 22540 ft 399 kts 149°
2026-05-05 21:07 51.61842 -1.05184 22901 ft 405 kts 131°
2026-05-05 21:07 51.60307 -1.01368 23245 ft 410 kts 115°
2026-05-05 21:07 51.59195 -0.97190 23570 ft 413 kts 113°
2026-05-05 21:08 51.58119 -0.92830 23842 ft 415 kts 112°
2026-05-05 21:08 51.57060 -0.88556 24126 ft 417 kts 113°
2026-05-05 21:08 51.55946 -0.84239 24421 ft 419 kts 113°
2026-05-05 21:08 51.54823 -0.79914 24724 ft 420 kts 113°
2026-05-05 21:09 51.53709 -0.75557 25018 ft 421 kts 113°
2026-05-05 21:09 51.52601 -0.71200 25320 ft 423 kts 113°
2026-05-05 21:09 51.51476 -0.66824 25610 ft 424 kts 113°
2026-05-05 21:09 51.50344 -0.62454 25902 ft 425 kts 114°
2026-05-05 21:10 51.49210 -0.58064 26189 ft 426 kts 114°
2026-05-05 21:10 51.48071 -0.53655 26474 ft 427 kts 114°
2026-05-05 21:10 51.46929 -0.49243 26754 ft 428 kts 114°
2026-05-05 21:10 51.45782 -0.44832 27037 ft 429 kts 114°
2026-05-05 21:11 51.44632 -0.40415 27306 ft 430 kts 114°
2026-05-05 21:11 51.43490 -0.36033 27569 ft 431 kts 114°
2026-05-05 21:11 51.42330 -0.31590 27835 ft 433 kts 114°
2026-05-05 21:11 51.41169 -0.27156 28093 ft 434 kts 114°
2026-05-05 21:12 51.40003 -0.22714 28344 ft 435 kts 114°
2026-05-05 21:12 51.38831 -0.18252 28604 ft 436 kts 115°
2026-05-05 21:12 51.37651 -0.13769 28846 ft 437 kts 115°
2026-05-05 21:12 51.36466 -0.09278 29089 ft 438 kts 115°
2026-05-05 21:13 51.35277 -0.04780 29327 ft 439 kts 115°
2026-05-05 21:13 51.34089 -0.00295 29561 ft 440 kts 115°
2026-05-05 21:13 51.33014 0.04325 29808 ft 443 kts 105°
2026-05-05 21:13 51.32383 0.09168 30108 ft 444 kts 102°
2026-05-05 21:14 51.31807 0.14016 30326 ft 445 kts 102°
2026-05-05 21:14 51.31232 0.18823 30540 ft 446 kts 102°
2026-05-05 21:14 51.30632 0.23686 30757 ft 447 kts 103°
2026-05-05 21:14 51.30025 0.28562 30965 ft 448 kts 103°
2026-05-05 21:15 51.29424 0.33446 31178 ft 448 kts 103°
2026-05-05 21:15 51.28822 0.38343 31381 ft 449 kts 103°
2026-05-05 21:15 51.28214 0.43239 31573 ft 450 kts 103°
2026-05-05 21:15 51.27598 0.48159 31754 ft 451 kts 103°
2026-05-05 21:16 51.26983 0.53073 31947 ft 452 kts 103°
2026-05-05 21:16 51.26365 0.58005 32130 ft 452 kts 103°
2026-05-05 21:16 51.25743 0.62930 32306 ft 453 kts 103°
2026-05-05 21:16 51.25115 0.67866 32477 ft 454 kts 103°
2026-05-05 21:17 51.24484 0.72812 32660 ft 455 kts 103°
2026-05-05 21:17 51.23852 0.77765 32826 ft 455 kts 103°
2026-05-05 21:17 51.23219 0.82715 32995 ft 456 kts 103°
2026-05-05 21:17 51.22582 0.87671 33235 ft 455 kts 103°
2026-05-05 21:18 51.21945 0.92604 33489 ft 454 kts 103°
2026-05-05 21:18 51.21307 0.97525 33735 ft 452 kts 104°
2026-05-05 21:18 51.20670 1.02430 34016 ft 451 kts 104°
2026-05-05 21:18 51.20041 1.07257 34251 ft 449 kts 104°
2026-05-05 21:19 51.19403 1.12133 34479 ft 448 kts 104°
2026-05-05 21:19 51.18766 1.16993 34699 ft 448 kts 104°
2026-05-05 21:19 51.18127 1.21841 34908 ft 447 kts 104°
2026-05-05 21:19 51.17486 1.26697 35116 ft 447 kts 104°
2026-05-05 21:20 51.16844 1.31539 35299 ft 447 kts 104°
2026-05-05 21:20 51.16252 1.36406 35482 ft 449 kts 97°
2026-05-05 21:20 51.15995 1.41373 35663 ft 450 kts 96°
2026-05-05 21:20 51.15769 1.46341 35830 ft 450 kts 96°
2026-05-05 21:21 51.15536 1.51316 36000 ft 450 kts 97°
2026-05-05 21:21 51.15289 1.56293 36173 ft 451 kts 97°
2026-05-05 21:21 51.15042 1.61277 36331 ft 451 kts 98°
2026-05-05 21:21 51.14796 1.66267 36491 ft 452 kts 96°
2026-05-05 21:22 51.14304 1.76191 36512 ft 447 kts 97°
2026-05-05 21:22 51.13800 1.86053 36503 ft 446 kts 97°
2026-05-05 21:23 51.13296 1.95842 36536 ft 447 kts 97°
2026-05-05 21:23 51.12776 2.05704 36533 ft 447 kts 98°
2026-05-05 21:24 51.12248 2.15566 36531 ft 447 kts 96°
2026-05-05 21:24 51.11714 2.25424 36529 ft 447 kts 97°
2026-05-05 21:25 51.11170 2.35287 36526 ft 447 kts 98°
2026-05-05 21:25 51.10616 2.45162 36527 ft 448 kts 97°
2026-05-05 21:26 51.10056 2.55033 36523 ft 448 kts 97°
2026-05-05 21:26 51.09439 2.64897 36526 ft 446 kts 104°
2026-05-05 21:27 51.07822 2.74342 36519 ft 444 kts 109°
2026-05-05 21:27 51.06099 2.83786 36514 ft 445 kts 108°
2026-05-05 21:28 51.04385 2.93237 36519 ft 445 kts 108°
2026-05-05 21:28 51.02651 3.02675 36517 ft 445 kts 108°
2026-05-05 21:29 51.00920 3.12103 36513 ft 444 kts 108°
2026-05-05 21:29 50.99183 3.21479 36511 ft 444 kts 108°
2026-05-05 21:30 50.97423 3.30947 36495 ft 445 kts 108°
2026-05-05 21:30 50.95676 3.40293 36491 ft 444 kts 108°
2026-05-05 21:31 50.93912 3.49687 36492 ft 444 kts 109°
2026-05-05 21:31 50.92139 3.59074 36487 ft 444 kts 109°
2026-05-05 21:32 50.90992 3.63592 36511 ft 441 kts 121°
2026-05-05 21:32 50.89310 3.67636 36501 ft 440 kts 129°
2026-05-05 21:32 50.85510 3.75227 36492 ft 440 kts 130°
2026-05-05 21:33 50.81716 3.82809 36487 ft 439 kts 130°
2026-05-05 21:33 50.77911 3.90393 36492 ft 440 kts 130°
2026-05-05 21:34 50.74128 3.97902 36488 ft 440 kts 130°
2026-05-05 21:34 50.70317 4.05452 36481 ft 440 kts 130°
2026-05-05 21:35 50.66493 4.13001 36480 ft 440 kts 130°
2026-05-05 21:35 50.62668 4.20533 36483 ft 440 kts 130°
2026-05-05 21:36 50.58845 4.28037 36468 ft 440 kts 130°
2026-05-05 21:36 50.55004 4.35557 36463 ft 439 kts 130°
2026-05-05 21:37 50.51178 4.43024 36462 ft 439 kts 130°
2026-05-05 21:37 50.47342 4.50490 36462 ft 439 kts 130°
2026-05-05 21:38 50.43506 4.57935 36464 ft 439 kts 130°
2026-05-05 21:38 50.39690 4.65320 36454 ft 437 kts 131°
2026-05-05 21:39 50.35868 4.72697 36447 ft 435 kts 131°
2026-05-05 21:39 50.32049 4.80043 36440 ft 435 kts 130°
2026-05-05 21:40 50.28225 4.87383 36439 ft 435 kts 130°
2026-05-05 21:40 50.24392 4.94716 36439 ft 435 kts 130°
2026-05-05 21:41 50.20555 5.02038 36436 ft 435 kts 130°
2026-05-05 21:41 50.16716 5.09342 36439 ft 436 kts 130°
2026-05-05 21:42 50.12867 5.16647 36433 ft 436 kts 130°
2026-05-05 21:42 50.09010 5.23944 36430 ft 436 kts 131°
2026-05-05 21:43 50.05168 5.31195 36427 ft 437 kts 131°
2026-05-05 21:43 50.01288 5.38496 36423 ft 437 kts 131°
2026-05-05 21:44 49.97407 5.45777 36423 ft 438 kts 131°
2026-05-05 21:44 49.93513 5.53064 36420 ft 439 kts 131°
2026-05-05 21:45 49.89605 5.60356 36423 ft 439 kts 131°
2026-05-05 21:45 49.85695 5.67631 36418 ft 439 kts 131°
2026-05-05 21:46 49.82417 5.73716 36424 ft 439 kts 131°
2026-05-05 21:46 49.78512 5.80944 36433 ft 441 kts 131°
2026-05-05 21:47 49.74570 5.88223 36414 ft 441 kts 131°
2026-05-05 21:47 49.70621 5.95492 36425 ft 441 kts 131°
2026-05-05 21:48 49.66671 6.02745 36426 ft 441 kts 131°
2026-05-05 21:48 49.62714 6.09990 36428 ft 441 kts 131°
2026-05-05 21:49 49.58751 6.17224 36429 ft 441 kts 131°
2026-05-05 21:49 49.54798 6.24422 36434 ft 443 kts 132°
2026-05-05 21:50 49.50808 6.31668 36425 ft 444 kts 132°
2026-05-05 21:50 49.46570 6.38517 36449 ft 441 kts 146°
2026-05-05 21:51 49.41184 6.42922 36439 ft 439 kts 158°
2026-05-05 21:51 49.35595 6.46702 36443 ft 439 kts 158°
2026-05-05 21:52 49.27216 6.52397 36440 ft 439 kts 158°
2026-05-05 21:53 49.21633 6.56169 36439 ft 439 kts 158°
2026-05-05 21:53 49.16049 6.59940 36443 ft 439 kts 158°
2026-05-05 21:54 49.10458 6.63701 36427 ft 439 kts 158°
2026-05-05 21:54 49.04899 6.67434 36433 ft 439 kts 158°
2026-05-05 21:55 48.99297 6.71185 36430 ft 439 kts 158°
2026-05-05 21:55 48.93720 6.74979 36437 ft 439 kts 157°
2026-05-05 21:56 48.88155 6.78796 36448 ft 439 kts 158°
2026-05-05 21:56 48.82561 6.82591 36442 ft 440 kts 158°
2026-05-05 21:57 48.76968 6.86398 36450 ft 440 kts 158°
2026-05-05 21:57 48.71374 6.90183 36448 ft 440 kts 158°
2026-05-05 21:58 48.65779 6.93966 36453 ft 440 kts 158°
2026-05-05 21:58 48.60219 6.97714 36463 ft 440 kts 158°
2026-05-05 21:59 48.54591 7.01499 36467 ft 440 kts 158°
2026-05-05 21:59 48.49032 7.05228 36467 ft 440 kts 158°
2026-05-05 22:00 48.43435 7.08974 36471 ft 440 kts 158°
2026-05-05 22:00 48.37831 7.12715 36472 ft 440 kts 158°
2026-05-05 22:01 48.32221 7.16452 36479 ft 440 kts 158°
2026-05-05 22:01 48.26609 7.20181 36489 ft 441 kts 158°
2026-05-05 22:02 48.20998 7.23900 36482 ft 440 kts 158°
2026-05-05 22:02 48.15415 7.27592 36472 ft 438 kts 159°
2026-05-05 22:03 48.09882 7.31241 36480 ft 436 kts 159°
2026-05-05 22:03 48.04324 7.34899 36479 ft 436 kts 159°
2026-05-05 22:04 47.98759 7.38553 36473 ft 436 kts 159°
2026-05-05 22:04 47.93197 7.42196 36480 ft 436 kts 159°
2026-05-05 22:05 47.87674 7.45806 36476 ft 436 kts 159°
2026-05-05 22:05 47.82119 7.49427 36475 ft 436 kts 159°
2026-05-05 22:06 47.76563 7.53041 36477 ft 436 kts 159°
2026-05-05 22:06 47.71001 7.56651 36477 ft 436 kts 159°
2026-05-05 22:07 47.65436 7.60262 36483 ft 436 kts 160°
2026-05-05 22:07 47.59887 7.63850 36484 ft 435 kts 160°
2026-05-05 22:08 47.54328 7.67439 36475 ft 435 kts 160°
2026-05-05 22:08 47.48781 7.71010 36487 ft 435 kts 160°
2026-05-05 22:09 47.43230 7.74577 36494 ft 435 kts 160°
2026-05-05 22:09 47.37681 7.78132 36495 ft 435 kts 160°
2026-05-05 22:10 47.32128 7.81683 36494 ft 435 kts 160°
2026-05-05 22:10 47.26565 7.85233 36508 ft 436 kts 160°
2026-05-05 22:11 47.20995 7.88778 36510 ft 436 kts 160°
2026-05-05 22:11 47.15427 7.92314 36510 ft 436 kts 160°
2026-05-05 22:12 47.09899 7.95817 36511 ft 436 kts 161°
2026-05-05 22:12 47.04330 7.99337 36504 ft 436 kts 161°
2026-05-05 22:13 46.98754 8.02854 36531 ft 436 kts 161°
2026-05-05 22:13 46.93181 8.06361 36536 ft 436 kts 161°
2026-05-05 22:14 46.87623 8.09853 36534 ft 431 kts 161°
2026-05-05 22:14 46.84868 8.11579 36230 ft 433 kts 161°
2026-05-05 22:14 46.82093 8.13313 35681 ft 435 kts 162°
2026-05-05 22:14 46.79309 8.15054 35086 ft 435 kts 162°
2026-05-05 22:15 46.76572 8.16772 34512 ft 422 kts 163°
2026-05-05 22:15 46.73912 8.18437 33952 ft 410 kts 163°
2026-05-05 22:15 46.71327 8.20047 33364 ft 392 kts 164°
2026-05-05 22:15 46.68884 8.21571 32869 ft 371 kts 164°
2026-05-05 22:16 46.66558 8.23017 32371 ft 358 kts 164°
2026-05-05 22:16 46.64290 8.24417 31922 ft 352 kts 164°
2026-05-05 22:16 46.62020 8.25816 31442 ft 357 kts 164°
2026-05-05 22:16 46.59728 8.27239 30982 ft 359 kts 164°
2026-05-05 22:17 46.57459 8.28651 30510 ft 361 kts 163°
2026-05-05 22:17 46.55144 8.30085 30034 ft 362 kts 163°
2026-05-05 22:17 46.52842 8.31511 29523 ft 356 kts 163°
2026-05-05 22:17 46.50550 8.32926 29090 ft 364 kts 163°
2026-05-05 22:18 46.48168 8.34387 28572 ft 377 kts 162°
2026-05-05 22:18 46.45744 8.35887 28068 ft 379 kts 162°
2026-05-05 22:18 46.43323 8.37390 27565 ft 376 kts 162°
2026-05-05 22:18 46.40961 8.38846 27091 ft 372 kts 162°
2026-05-05 22:19 46.38581 8.40305 26599 ft 370 kts 162°
2026-05-05 22:19 46.36209 8.41760 26110 ft 369 kts 162°
2026-05-05 22:19 46.33840 8.43216 25634 ft 368 kts 162°
2026-05-05 22:19 46.31493 8.44658 25145 ft 366 kts 162°
2026-05-05 22:20 46.29157 8.46090 24671 ft 363 kts 162°
2026-05-05 22:20 46.26784 8.47210 24187 ft 356 kts 173°
2026-05-05 22:20 46.24348 8.47671 23740 ft 350 kts 179°
2026-05-05 22:20 46.21928 8.47987 23241 ft 349 kts 178°
2026-05-05 22:21 46.19514 8.48326 22769 ft 347 kts 178°
2026-05-05 22:21 46.17126 8.48679 22328 ft 344 kts 178°
2026-05-05 22:21 46.14747 8.49023 21870 ft 343 kts 178°
2026-05-05 22:21 46.12406 8.49352 21411 ft 342 kts 178°
2026-05-05 22:22 46.10076 8.50047 20986 ft 343 kts 166°
2026-05-05 22:22 46.07827 8.51245 20546 ft 343 kts 163°
2026-05-05 22:22 46.05599 8.52466 20105 ft 342 kts 164°
2026-05-05 22:22 46.03372 8.53660 19640 ft 341 kts 164°
2026-05-05 22:23 46.01153 8.54846 19207 ft 339 kts 164°
2026-05-05 22:23 45.98940 8.56036 18766 ft 339 kts 163°
2026-05-05 22:23 45.96737 8.57224 18328 ft 338 kts 163°
2026-05-05 22:23 45.94535 8.58407 17857 ft 337 kts 163°
2026-05-05 22:24 45.92342 8.59582 17415 ft 335 kts 163°
2026-05-05 22:24 45.90192 8.60794 17227 ft 328 kts 156°
2026-05-05 22:24 45.88292 8.62626 16839 ft 331 kts 145°
2026-05-05 22:24 45.86506 8.64733 16420 ft 331 kts 145°
2026-05-05 22:25 45.84726 8.66819 16021 ft 330 kts 145°
2026-05-05 22:25 45.82939 8.68880 15592 ft 329 kts 145°
2026-05-05 22:25 45.81181 8.70907 15218 ft 328 kts 145°
2026-05-05 22:25 45.79408 8.72960 14815 ft 327 kts 144°
2026-05-05 22:26 45.77640 8.75009 14414 ft 327 kts 144°
2026-05-05 22:26 45.75808 8.76904 14004 ft 323 kts 154°
2026-05-05 22:26 45.73849 8.78428 13555 ft 312 kts 155°
2026-05-05 22:26 45.71987 8.79831 13164 ft 297 kts 155°
2026-05-05 22:27 45.70161 8.81223 12758 ft 298 kts 154°
2026-05-05 22:27 45.68331 8.82637 12355 ft 299 kts 154°
2026-05-05 22:27 45.66497 8.84053 11963 ft 300 kts 154°
2026-05-05 22:27 45.64654 8.85466 11574 ft 301 kts 154°
2026-05-05 22:28 45.62804 8.86884 11166 ft 302 kts 154°
2026-05-05 22:28 45.60862 8.87946 10800 ft 298 kts 170°
2026-05-05 22:28 45.58830 8.88512 10438 ft 297 kts 171°
2026-05-05 22:28 45.56823 8.89037 10093 ft 296 kts 171°
2026-05-05 22:29 45.54817 8.89576 9979 ft 287 kts 171°
2026-05-05 22:29 45.52899 8.90104 9974 ft 275 kts 171°
2026-05-05 22:29 45.51059 8.90607 9960 ft 264 kts 171°
2026-05-05 22:29 45.49268 8.91091 9960 ft 261 kts 171°
2026-05-05 22:30 45.47484 8.91575 9966 ft 260 kts 171°
2026-05-05 22:30 45.45706 8.92059 9966 ft 260 kts 171°
2026-05-05 22:30 45.43930 8.92542 9966 ft 259 kts 171°
2026-05-05 22:30 45.42157 8.93024 9973 ft 259 kts 171°
2026-05-05 22:31 45.40400 8.93501 9978 ft 255 kts 171°
2026-05-05 22:31 45.38676 8.93969 9973 ft 249 kts 171°
2026-05-05 22:31 45.36975 8.94429 9976 ft 248 kts 171°
2026-05-05 22:31 45.35281 8.94888 9973 ft 247 kts 171°
2026-05-05 22:32 45.33592 8.95345 9977 ft 247 kts 171°
2026-05-05 22:32 45.31928 8.95795 9979 ft 246 kts 171°
2026-05-05 22:32 45.30247 8.96250 9975 ft 246 kts 171°
2026-05-05 22:32 45.28564 8.96707 9978 ft 246 kts 171°
2026-05-05 22:33 45.26882 8.97164 9951 ft 246 kts 171°
2026-05-05 22:33 45.25202 8.97620 9949 ft 246 kts 171°
2026-05-05 22:33 45.23536 8.98073 9945 ft 240 kts 171°
2026-05-05 22:33 45.21905 8.98515 9880 ft 238 kts 171°
2026-05-05 22:34 45.20827 8.98804 9760 ft 238 kts 171°
2026-05-05 22:34 45.19211 8.99235 9436 ft 232 kts 171°
2026-05-05 22:34 45.17674 8.99648 9101 ft 218 kts 171°
2026-05-05 22:34 45.16228 9.00036 8852 ft 204 kts 172°
2026-05-05 22:35 45.14869 9.00399 8566 ft 195 kts 172°
2026-05-05 22:35 45.13552 9.00749 8211 ft 191 kts 172°
2026-05-05 22:35 45.12252 9.01098 7863 ft 189 kts 172°
2026-05-05 22:35 45.10965 9.01444 7494 ft 187 kts 172°
2026-05-05 22:36 45.09690 9.01786 7129 ft 186 kts 172°
2026-05-05 22:36 45.08427 9.02125 6769 ft 184 kts 172°
2026-05-05 22:36 45.07184 9.02041 6402 ft 179 kts 201°
2026-05-05 22:36 45.06167 9.01072 6008 ft 179 kts 229°
2026-05-05 22:37 45.05646 8.99502 5750 ft 175 kts 256°
2026-05-05 22:37 45.05420 8.97822 5647 ft 179 kts 256°
2026-05-05 22:37 45.05183 8.96069 5499 ft 178 kts 256°
2026-05-05 22:37 45.04950 8.94346 5366 ft 178 kts 256°
2026-05-05 22:38 45.04718 8.92629 5229 ft 178 kts 256°
2026-05-05 22:38 45.04536 8.90929 5070 ft 179 kts 270°
2026-05-05 22:38 45.05010 8.89298 4971 ft 186 kts 309°
2026-05-05 22:38 45.06122 8.88357 4991 ft 193 kts 344°
2026-05-05 22:39 45.07446 8.87985 4986 ft 194 kts 348°
2026-05-05 22:39 45.08782 8.87655 4981 ft 195 kts 347°
2026-05-05 22:39 45.10112 8.87303 4992 ft 193 kts 347°
2026-05-05 22:39 45.11439 8.86941 4983 ft 194 kts 347°
2026-05-05 22:40 45.12762 8.86580 4989 ft 194 kts 347°
2026-05-05 22:40 45.14089 8.86220 4987 ft 193 kts 348°
2026-05-05 22:40 45.15394 8.85866 4984 ft 190 kts 348°
2026-05-05 22:40 45.16699 8.85512 4981 ft 191 kts 347°
2026-05-05 22:41 45.18005 8.85157 4988 ft 191 kts 348°
2026-05-05 22:41 45.19292 8.84808 4990 ft 190 kts 347°
2026-05-05 22:41 45.20605 8.84560 4984 ft 192 kts
2026-05-05 22:41 45.21944 8.84613 4990 ft 193 kts 356°
2026-05-05 22:42 45.23265 8.84361 4996 ft 192 kts 347°
2026-05-05 22:42 45.24570 8.83964 5030 ft 191 kts 347°
2026-05-05 22:42 45.25875 8.83594 5031 ft 191 kts 348°
2026-05-05 22:42 45.27179 8.83235 5033 ft 191 kts 348°
2026-05-05 22:43 45.28486 8.82874 5035 ft 191 kts 348°
2026-05-05 22:43 45.29793 8.82513 5035 ft 191 kts 348°
2026-05-05 22:43 45.31099 8.82153 5037 ft 191 kts 348°
2026-05-05 22:43 45.32405 8.81793 5038 ft 191 kts 348°
2026-05-05 22:44 45.33710 8.81432 5036 ft 191 kts 348°
2026-05-05 22:44 45.35016 8.81071 5037 ft 191 kts 348°
2026-05-05 22:44 45.36323 8.80711 5039 ft 192 kts 348°
2026-05-05 22:44 45.37629 8.80350 5038 ft 191 kts 348°
2026-05-05 22:45 45.38936 8.79988 5036 ft 191 kts 348°
2026-05-05 22:45 45.40229 8.79631 5037 ft 191 kts 348°
2026-05-05 22:45 45.41532 8.79279 5035 ft 191 kts 348°
2026-05-05 22:45 45.42843 8.78919 4955 ft 192 kts 348°
2026-05-05 22:46 45.44145 8.78558 4721 ft 189 kts 348°
2026-05-05 22:46 45.45409 8.78209 4614 ft 182 kts 348°
2026-05-05 22:46 45.46679 8.77863 4611 ft 186 kts 349°
2026-05-05 22:46 45.47912 8.77525 4603 ft 174 kts 348°
2026-05-05 22:47 45.49104 8.77194 4546 ft 170 kts 349°
2026-05-05 22:47 45.50288 8.76867 3870 ft 172 kts 349°
2026-05-05 22:47 45.51411 8.76562 3907 ft 166 kts 349°
2026-05-05 22:47 45.52579 8.76241 3905 ft 170 kts 349°
2026-05-05 22:48 45.53739 8.75919 3912 ft 171 kts 349°
2026-05-05 22:48 45.54903 8.75597 3915 ft 170 kts 349°
2026-05-05 22:48 45.56078 8.75271 3827 ft 172 kts 349°
2026-05-05 22:48 45.57240 8.74950 3580 ft 171 kts 350°
2026-05-05 22:49 45.58401 8.74634 3192 ft 169 kts 349°
2026-05-05 22:49 45.59551 8.74315 2670 ft 166 kts 350°
2026-05-05 22:49 45.60657 8.74008 2512 ft 159 kts 350°
2026-05-05 22:49 45.61775 8.73697 2521 ft 167 kts 350°
2026-05-05 22:50 45.62860 8.73646 2405 ft 149 kts 29°
2026-05-05 22:50 45.63376 8.74711 2437 ft 127 kts 88°
2026-05-05 22:50 45.63491 8.75956 2589 ft 127 kts 103°
2026-05-05 22:50 45.63346 8.77205 2696 ft 130 kts 85°
2026-05-05 22:51 45.63388 8.78523 2806 ft 135 kts 90°
2026-05-05 22:51 45.63445 8.79864 2943 ft 138 kts 89°
2026-05-05 22:51 45.63513 8.81246 3094 ft 140 kts 89°
2026-05-05 22:51 45.63586 8.82640 3239 ft 141 kts 89°
2026-05-05 22:52 45.63643 8.84049 3368 ft 142 kts 96°
2026-05-05 22:52 45.63360 8.85369 3501 ft 139 kts 116°
2026-05-05 22:52 45.62849 8.86542 3637 ft 139 kts 131°
2026-05-05 22:52 45.62086 8.87382 3754 ft 139 kts 149°
2026-05-05 22:53 45.61177 8.87832 3851 ft 139 kts 172°
2026-05-05 22:53 45.60219 8.88100 3945 ft 141 kts 168°
2026-05-05 22:53 45.59249 8.88372 4000 ft 142 kts 169°
2026-05-05 22:53 45.58288 8.88637 3996 ft 142 kts 169°
2026-05-05 22:54 45.57333 8.88897 3997 ft 141 kts 169°
2026-05-05 22:54 45.56369 8.89159 3997 ft 140 kts 169°